カタログに戻る

STARLINK-36311

運用中通信VLEO
NORAD 68525·PAYLOAD·🇺🇸 United States

打ち上げ Mar 30, 2026 から Cape Canaveral Space Force Station

Loading…

次のパス (今後24時間)

TLE

最新Source: CelesTrak SupGP

元期: Sep 14, 2026, 22:37 UTC

1 68525C 26068T   26257.94284722  .00013366  00000+0  39509-3 0  2572
2 68525  53.1588 325.6948 0001261  92.2802 282.1345 15.34369315    14

AllMySatでSTARLINK-36311をリアルタイム追跡

Download on the App Store